{"data":{"norad_id":61866,"intl_designator":"2024-202X","name":"STARLINK-32588","alt_names":[],"object_type":"PAYLOAD","status":"ACTIVE","operator":null,"country":"US","launch_date":"2024-11-07","launch_site_code":"AFETR","launch_vehicle":null,"mission":null,"orbit_class":"UNKNOWN","rcs_meters":null,"size_class":null,"mass_kg":null,"dimensions":null,"purposes":["comms"],"wikipedia_slug":null,"has_3d_model":false,"image_url":null,"decayed_at":null,"tle_current":{"epoch":"2026-09-21T13:57:30.496608Z","epoch_age_seconds":95120,"freshness":"FRESH","line1":"1 61866U 24202X   26264.58160297 -.00000053  00000+0  75894-5 0  9991","line2":"2 61866  43.0047 211.9636 0001131 268.7466  91.3256 15.27573466105299","mean_motion":15.27573466,"eccentricity":0.0001131,"inclination_deg":43.0047,"raan_deg":211.9636,"arg_perigee_deg":268.7466,"mean_anomaly_deg":91.3256,"bstar":7.5894e-6,"rev_number":10529,"period_min":94.267151927605,"perigee_km":482.2926588957,"apogee_km":483.84466361628,"semimajor_km":6861.205661256,"source":"CELESTRAK","updated_at":"2026-09-22T09:00:49.444055Z"}}}